This is the latest recevied weather packets stored in our database for station/object W8CEN. If no packets are shown the sender has not sent any weather packets the latest 10 day(s).
| Time | Temp. | Humidity | Pressure | Rain* | Wind** | Luminosity | Snow |
|---|---|---|---|---|---|---|---|
| 1777638292 | 5° C | 93% | 992 hPa | 1.78 mm | - | 32 W/m² | - |
| 1777637988 | 5° C | 94% | 992.1 hPa | 1.78 mm | - | 25 W/m² | - |
| 1777637684 | 5° C | 94% | 992 hPa | 0 mm | - | 15 W/m² | - |
| 1777637381 | 5° C | 94% | 991.8 hPa | 0 mm | - | 14 W/m² | - |
| 1777637078 | 5° C | 94% | 991.9 hPa | 0 mm | - | 15 W/m² | - |
| 1777636774 | 5° C | 94% | 991.7 hPa | 0 mm | - | 15 W/m² | - |
| 1777636470 | 5.56° C | 95% | 991.7 hPa | 0 mm | - | 9 W/m² | - |
| 1777636166 | 5.56° C | 95% | 991.8 hPa | 0 mm | - | 7 W/m² | - |
| 1777635861 | 5.56° C | 96% | 991.8 hPa | 0 mm | - | 7 W/m² | - |
| 1777635558 | 5.56° C | 96% | 991.7 hPa | 1.27 mm | - | 9 W/m² | - |
| 1777635255 | 5.56° C | 96% | 991.6 hPa | 1.27 mm | - | 5 W/m² | - |
| 1777634951 | 5.56° C | 96% | 991.4 hPa | 3.05 mm | - | 6 W/m² | - |
| 1777634648 | 5.56° C | 96% | 991.7 hPa | 4.83 mm | - | 8 W/m² | - |
| 1777634346 | 5.56° C | 96% | 991.8 hPa | 3.05 mm | - | 4 W/m² | - |
| 1777634042 | 5.56° C | 96% | 991.7 hPa | 3.05 mm | - | 3 W/m² | - |
| 1777633738 | 5.56° C | 96% | 991.7 hPa | 4.83 mm | - | 2 W/m² | - |
| 1777633437 | 5.56° C | 96% | 991.5 hPa | 6.1 mm | - | 1 W/m² | - |
| 1777633134 | 5.56° C | 96% | 991.4 hPa | 4.83 mm | - | 1 W/m² | - |
| 1777632830 | 5.56° C | 96% | 991.7 hPa | 4.83 mm | - | 1 W/m² | - |
| 1777632526 | 5.56° C | 95% | 991.7 hPa | 4.32 mm | - | 1 W/m² | - |
| 1777632224 | 5.56° C | 95% | 991.8 hPa | 3.05 mm | - | 1 W/m² | - |
| 1777631921 | 5.56° C | 95% | 991.6 hPa | 1.78 mm | - | 0 W/m² | - |
| 1777631620 | 5.56° C | 95% | 991.5 hPa | 0 mm | - | 0 W/m² | - |
| 1777631316 | 5.56° C | 95% | 991.5 hPa | 3.05 mm | - | 0 W/m² | - |
| 1777631013 | 5.56° C | 95% | 991.5 hPa | 4.32 mm | - | 0 W/m² | - |
* Rain latest hour (hover to see other rain measurements)
** Current wind speed in m/s (hover to see current wind gust speed)